This is the latest recevied weather packets stored in our database for station/object DN9EM-1. If no packets are shown the sender has not sent any weather packets the latest 10 day(s).
| Time | Temp. | Humidity | Pressure | Rain* | Wind** | Luminosity | Snow |
|---|---|---|---|---|---|---|---|
| 1777877739 | 12.22° C | 80% | 1014.7 hPa | 0 mm | - | - | - |
| 1777877137 | 11.67° C | 81% | 1014.7 hPa | 0 mm | - | - | - |
| 1777876534 | 11.67° C | 81% | 1014.6 hPa | 0 mm | - | - | - |
| 1777875932 | 11.67° C | 82% | 1014.3 hPa | 0 mm | - | - | - |
| 1777875329 | 11.67° C | 82% | 1014.3 hPa | 0 mm | - | - | - |
| 1777874726 | 11.67° C | 82% | 1014.1 hPa | 0 mm | - | - | - |
| 1777874124 | 11.67° C | 84% | 1014.1 hPa | 0 mm | - | - | - |
| 1777873521 | 11.11° C | 84% | 1013.9 hPa | 0 mm | - | - | - |
| 1777872919 | 11.11° C | 85% | 1013.9 hPa | 0 mm | - | - | - |
| 1777872316 | 11.11° C | 86% | 1013.9 hPa | 0 mm | - | - | - |
| 1777871774 | 11.11° C | 87% | 1013.8 hPa | 0 mm | - | - | - |
| 1777871171 | 11.11° C | 87% | 1013.7 hPa | 0 mm | - | - | - |
| 1777870569 | 10.56° C | 87% | 1013.4 hPa | 0 mm | - | - | - |
| 1777869966 | 10.56° C | 87% | 1013.3 hPa | 0 mm | - | - | - |
| 1777869364 | 10.56° C | 87% | 1013.4 hPa | 0 mm | - | - | - |
| 1777868761 | 10.56° C | 87% | 1013.3 hPa | 0 mm | - | - | - |
| 1777868159 | 11.11° C | 88% | 1013 hPa | 0 mm | - | - | - |
| 1777867556 | 10.56° C | 88% | 1013.1 hPa | 0 mm | - | - | - |
| 1777866953 | 10.56° C | 88% | 1013 hPa | 0 mm | - | - | - |
| 1777866351 | 11.11° C | 88% | 1012.8 hPa | 0 mm | - | - | - |
| 1777865748 | 11.67° C | 89% | 1013 hPa | 0 mm | - | - | - |
| 1777865146 | 11.67° C | 89% | 1012.7 hPa | 0 mm | - | - | - |
| 1777864543 | 11.67° C | 89% | 1012.7 hPa | 0 mm | - | - | - |
| 1777863941 | 12.22° C | 88% | 1012.8 hPa | 0 mm | - | - | - |
| 1777863338 | 12.78° C | 88% | 1012.5 hPa | 0 mm | - | - | - |
* Rain latest hour (hover to see other rain measurements)
** Current wind speed in m/s (hover to see current wind gust speed)